SCP
0 0 0 -0 0 0 0 0 0 0 0 0 0 0 0 0 0 0 0 0 -0 -0 -0 -0 -0 -0 -1 -1 -1 -1 -1 -1 -1 -1 -1 -0 -0 -0 -0 -0 -0 -0 -0 -0 -0 0 0 0 0
0 0 0 0 0 0 0 0 0 0 0 0 0 0 0 0 0 0 -0 0 -0 -1 -1 -0 -0 -1 -0 -1 -1 -1 -1 -1 -1 -1 -1 -0 -0 -0 -0 -0 -0 -0 -0 -0 0 0 0 0 0
0 0 0 0 0 0 0 0 0 0 0 0 0 0 0 0 0 0 0 0 -1 -2 -0 -0 -0 -1 -0 -0 -1 -1 -1 -1 -1 -1 -1 -0 -0 -0 -0 -0 -0 -0 0 0 0 0 0 0 0
0 0 0 0 -0 0 0 0 0 0 0 0 0 0 0 0 0 0 0 0 0 -1 -0 -0 -0 -0 -1 -1 -1 -1 -1 -1 -1 -1 -1 -0 -0 -0 -0 0 0 0 0 0 0 0 0 0 0
0 0 0 0 -0 0 0 0 0 0 0 0 0 0 0 0 0 0 0 0 0 0 -0 -1 -0 -0 -0 -1 -1 -1 -1 -1 -1 -1 -0 -0 -0 -0 0 0 0 0 0 0 0 0 0 0 0
0 0 0 0 0 0 0 0 0 0 0 0 0 0 0 0 0 -0 0 0 0 0 -0 -1 -0 -0 -0 -1 -1 -1 -1 -1 -0 -0 -0 -0 -0 0 0 0 0 0 0 0 0 0 0 0 0
0 0 0 0 0 0 0 0 0 0 0 0 0 0 0 -0 0 0 0 0 0 0 0 -1 -0 -0 -0 -0 -0 -0 -0 -0 -0 -0 -0 -0 0 0 0 0 0 0 0 0 0 0 0 0 0
0 0 0 0 0 0 0 0 0 0 0 0 0 0 0 0 0 0 0 0 0 0 0 -0 -0 -0 -0 -0 0 -0 -0 -0 -0 -0 0 0 0 0 0 0 0 0 0 0 0 0 0 0 0
0 0 0 0 0 0 0 0 0 0 0 0 0 0 0 0 0 0 0 0 0 0 0 0 0 0 0 -0 0 0 0 0 0 0 0 0 0 0 0 0 0 0 0 0 0 0 0 0 0
0 0 0 0 0 0 0 0 0 -0 -0 0 0 0 0 0 0 0 0 0 0 0 0 0 0 0 0 0 0 0 0 0 0 0 0 0 0 0 0 0 0 0 0 0 0 0 0 0 0
0 0 0 0 0 0 0 0 0 0 0 0 0 0 0 0 0 0 0 0 0 1 1 1 1 1 0 0 0 0 0 0 0 0 0 0 0 0 0 0 0 0 0 0 0 0 0 0 0
0 0 0 0 0 0 0 0 0 0 0 0 0 0 0 0 0 0 1 0 1 0 1 1 1 1 1 0 0 0 0 0 0 0 0 0 0 0 0 0 0 0 0 0 0 0 0 0 0
0 0 0 0 0 0 0 0 0 0 0 0 0 0 0 0 0 0 0 1 1 0 0 1 1 1 1 1 0 0 0 0 0 0 0 0 0 0 0 0 0 0 0 0 0 0 0 0 0
0 0 0 0 0 0 0 0 0 0 0 0 0 0 0 0 0 0 0 0 1 0 0 1 1 1 1 1 1 1 0 0 0 0 0 0 0 0 0 0 0 0 0 0 1 0 0 0 0
0 0 0 0 0 0 0 0 0 0 0 0 0 0 0 0 0 0 0 0 0 0 1 1 1 1 1 1 1 0 1 0 0 0 0 0 0 0 0 0 0 0 1 1 1 0 0 0 0
-0 -0 0 0 0 0 0 0 0 0 0 0 0 0 0 0 0 0 0 0 0 0 1 1 1 1 1 1 1 1 0 0 0 0 0 0 0 0 0 0 0 0 1 1 0 0 0 0 0
-0 -0 -0 0 0 0 0 0 0 0 0 0 0 0 0 0 0 0 0 0 0 0 1 2 1 1 1 1 1 1 1 0 0 0 0 0 0 0 0 0 1 1 1 0 0 0 0 0 0
0 0 0 -0 -0 0 0 0 0 0 0 0 0 0 0 0 0 0 0 0 1 1 2 2 2 2 1 1 1 0 1 0 0 0 0 0 0 0 0 1 1 0 0 0 0 0 0 0 0
0 0 0 0 0 0 0 0 0 0 0 0 0 0 0 0 0 0 0 0 1 2 3 2 2 3 3 1 1 1 0 1 1 0 1 0 0 0 1 1 1 0 0 1 0 0 0 0 0
0 0 -0 0 -0 0 0 0 0 0 0 0 0 0 0 0 0 0 0 1 2 4 4 3 2 3 2 1 1 1 1 1 1 1 1 1 0 0 0 1 1 1 1 0 0 0 0 0 0
0 0 0 0 0 0 0 0 0 0 0 0 0 0 0 0 0 0 0 2 3 4 3 2 2 2 2 1 1 1 1 1 1 1 1 1 1 1 1 1 1 1 0 0 0 0 0 0 0
0 0 0 0 0 -0 -0 0 0 0 0 0 0 0 0 0 0 0 0 1 2 3 2 2 1 2 1 1 2 2 1 1 1 1 1 1 1 1 1 1 1 0 0 0 0 0 0 0 0
0 0 0 0 0 0 -0 0 0 0 0 0 0 0 0 0 0 0 0 0 1 2 4 2 2 1 1 1 2 1 1 1 1 1 4 3 4 1 1 1 0 0 0 0 0 0 0 0 0
0 0 0 0 0 0 -0 0 0 0 0 0 0 0 0 0 0 0 0 0 1 2 3 4 2 2 1 1 1 2 2 2 2 3 2 2 2 0 0 0 0 0 0 0 0 0 0 0 0
0 0 0 0 0 0 -0 0 0 0 0 0 0 0 0 0 0 0 0 0 1 2 2 4 3 3 2 1 1 2 2 4 2 1 1 0 0 0 0 0 0 0 0 0 0 0 0 0 0
-0 0 0 0 0 0 0 0 0 0 0 0 0 0 0 0 0 0 0 0 1 2 3 3 3 3 3 2 1 2 4 3 2 1 1 0 0 0 0 0 0 0 0 0 0 0 0 0 0
0 0 0 0 0 0 0 -0 0 -0 0 0 0 0 0 0 0 0 0 0 0 2 3 3 4 4 3 3 3 3 4 2 1 0 0 0 0 0 0 0 0 0 0 0 0 0 0 0 0
0 -0 0 0 0 0 0 -0 -0 0 0 0 0 0 0 0 0 0 0 0 0 1 3 3 4 5 4 4 4 4 2 1 0 1 0 0 0 0 0 0 0 0 0 0 0 0 0 0 0
0 0 0 0 0 0 0 -0 -0 0 0 0 0 0 0 0 0 0 0 0 0 1 2 4 4 3 4 6 3 1 1 1 1 1 0 0 0 0 0 0 0 0 0 0 0 0 0 0 0
0 0 0 0 0 0 -0 0 0 -0 0 0 0 0 0 0 0 0 0 0 0 1 2 4 4 3 4 2 1 1 1 1 1 0 0 0 0 0 0 0 0 0 0 0 0 0 0 0 0
Wind_Speed_500mb
19 11 6 7 13 13 26 26 25 16 16 13 4 9 17 20 16 8 11 23 41 52 62 57 53 50 47 43 40 37 32 31 33 31 29 30 32 35 39 39 37 31 26 28 26 22 20 15 11
15 12 9 10 16 27 28 32 31 27 16 5 11 20 18 15 9 2 12 28 48 53 63 60 56 53 50 45 41 38 30 32 33 32 32 32 33 37 40 37 33 28 25 25 22 19 15 13 11
19 19 17 10 22 33 36 29 16 22 22 14 8 10 13 5 4 5 9 33 55 56 66 63 60 56 53 48 42 36 29 32 34 35 34 33 34 37 38 33 28 24 21 20 18 14 12 12 12
16 14 16 22 42 42 41 28 5 14 27 26 18 17 14 3 1 3 4 43 56 59 63 65 63 59 55 50 44 36 30 31 33 35 35 35 35 35 34 30 25 21 20 20 16 14 13 13 12
22 17 24 35 51 53 39 30 10 17 5 12 10 15 12 5 10 8 22 45 53 58 58 68 65 60 56 51 46 38 34 33 33 34 35 34 35 36 33 29 24 23 21 18 15 13 13 12 12
26 22 28 43 53 52 41 39 30 31 25 19 19 26 27 8 2 11 27 43 51 58 58 70 66 61 57 54 48 40 36 35 34 35 35 35 35 35 32 28 25 21 17 15 13 12 11 10 8
39 25 42 52 50 53 39 36 34 37 45 44 31 27 12 9 12 13 30 42 51 54 55 68 68 64 58 54 49 42 37 36 36 37 37 37 35 33 31 28 24 20 17 14 12 11 11 8 6
40 30 52 50 49 58 40 27 36 38 46 40 32 20 30 30 12 19 30 43 53 55 54 59 65 68 63 58 51 45 40 37 35 37 38 37 35 33 31 28 24 21 17 14 11 10 8 7 6
30 29 41 53 51 40 15 26 36 34 35 25 34 43 17 12 19 22 35 47 54 55 56 59 61 64 59 58 57 49 43 38 35 36 37 38 36 35 32 30 25 21 17 13 11 9 6 4 4
33 33 58 42 39 39 43 41 43 27 29 33 34 37 29 21 24 27 38 52 60 62 60 61 60 60 57 51 61 57 51 45 42 40 42 39 33 31 27 29 26 21 16 12 8 5 3 1 4
43 53 44 43 38 39 47 52 42 41 42 44 38 38 33 28 26 30 39 49 61 60 59 61 61 60 59 53 59 48 47 45 43 43 43 35 34 36 31 28 26 21 17 7 6 4 2 8 5
48 53 51 57 60 44 42 49 50 56 59 42 38 37 27 34 32 30 38 46 54 60 61 61 62 61 61 53 54 48 45 43 39 40 45 38 35 36 30 24 22 21 15 17 12 8 12 7 4
44 45 56 47 39 49 61 59 52 66 55 55 61 51 40 39 36 34 31 44 52 61 63 69 67 68 62 56 53 49 46 43 39 40 43 36 33 33 31 27 23 20 18 17 14 13 8 6 4
33 36 35 40 49 53 55 59 54 87 62 62 56 56 60 56 48 43 39 41 55 63 69 77 73 73 60 56 53 49 45 42 39 37 39 39 32 33 32 30 24 20 19 16 13 11 8 5 7
35 37 40 48 55 50 52 53 71 76 53 54 54 72 74 69 63 61 55 50 52 62 72 79 82 75 61 56 55 49 44 41 39 37 39 40 36 39 31 27 27 22 19 19 14 10 8 4 5
36 37 37 36 47 48 50 73 62 67 73 70 64 68 67 66 68 68 62 57 56 59 74 74 75 66 61 56 57 47 42 40 38 36 37 44 42 40 36 29 25 21 18 14 10 7 5 5 6
31 33 41 38 29 29 42 66 49 70 66 49 55 67 72 70 59 59 61 58 59 61 72 79 73 67 64 57 52 48 46 43 39 37 35 46 43 40 34 27 24 26 16 12 10 8 5 9 8
35 35 38 37 30 44 45 55 42 52 17 33 53 48 52 65 70 62 62 56 57 63 76 76 72 67 65 56 49 45 42 40 37 35 35 44 44 42 36 31 25 19 16 10 7 7 11 14 16
45 46 49 42 37 42 50 48 42 36 45 46 45 48 47 49 56 60 58 58 58 65 78 73 77 73 77 62 58 50 47 42 38 37 38 43 46 44 40 27 27 17 13 12 8 12 15 8 11
49 48 53 42 42 38 52 59 51 43 46 51 48 46 49 47 42 54 51 58 64 79 85 74 75 78 84 62 55 47 43 41 40 38 44 44 44 46 42 28 23 19 16 8 9 11 5 4 10
44 44 43 45 42 39 43 59 58 53 55 58 64 63 58 54 42 45 48 59 64 77 85 78 80 82 80 63 53 44 42 42 42 41 41 47 41 44 41 38 27 21 8 10 14 11 5 4 5
37 30 40 39 38 32 38 43 54 53 58 58 62 67 70 56 49 42 44 59 65 70 74 74 74 76 71 73 59 62 58 51 46 42 34 39 41 41 43 37 27 11 5 9 18 16 9 2 3
33 32 32 35 42 44 53 36 42 48 55 56 45 64 73 60 53 50 49 58 64 66 69 69 68 71 70 75 64 60 51 44 41 41 46 44 44 41 35 27 20 13 11 26 21 12 5 5 2
28 25 33 36 33 34 49 46 44 42 47 49 41 55 59 64 57 50 46 53 58 60 64 64 70 71 68 70 74 66 57 48 48 57 53 52 47 37 34 29 12 11 8 26 14 8 9 7 7
18 20 15 22 23 33 36 29 36 38 41 43 43 38 51 54 55 52 48 56 58 63 66 68 69 69 68 68 70 59 52 60 53 55 59 55 44 43 35 22 20 28 22 17 14 12 9 8 7
21 16 16 24 25 27 23 31 38 42 45 45 45 62 46 46 49 47 46 54 59 62 64 68 67 66 66 63 61 55 54 51 53 50 51 46 48 41 33 26 26 32 21 15 12 8 5 6 8
25 32 34 39 48 33 33 40 26 37 42 43 41 42 44 41 35 36 33 43 54 58 61 64 66 62 63 64 61 60 62 58 51 48 44 41 47 42 34 30 29 21 18 20 14 10 8 7 8
35 18 14 9 11 19 21 30 21 13 31 43 44 48 54 42 37 35 29 29 45 51 53 54 55 61 66 66 67 71 70 53 49 45 40 55 54 47 42 37 27 25 26 24 19 12 10 9 9
14 21 11 18 19 19 23 10 15 8 23 18 43 59 59 54 47 39 31 24 33 46 50 52 53 62 65 73 79 72 62 52 47 43 59 67 60 52 45 47 40 32 31 26 18 12 6 7 8
34 36 29 14 25 18 18 17 23 20 13 12 9 33 47 49 51 46 38 27 29 41 49 52 58 61 75 80 75 65 55 58 55 68 68 59 54 55 51 39 36 33 29 22 14 7 3 3 5
Wind_Direction_500mb
245 236 198 233 243 235 255 244 246 231 232 218 211 241 327 306 292 7 138 175 164 166 171 174 176 175 176 174 167 163 167 171 172 170 162 156 153 157 157 153 151 148 146 149 153 157 164 169 167
209 191 190 244 250 242 249 237 234 246 227 185 239 242 255 294 317 159 128 172 165 168 172 176 178 178 178 176 171 167 175 175 175 174 168 164 162 163 161 157 157 157 155 158 159 165 172 173 166
185 182 232 228 239 243 253 256 240 250 230 210 261 269 294 323 58 189 208 169 165 170 174 178 179 180 181 179 174 174 183 179 178 176 173 170 168 165 162 159 158 159 158 160 160 160 161 161 160
173 192 238 240 242 241 256 273 325 250 243 246 259 261 244 235 3 196 183 164 170 172 174 179 179 181 182 182 178 185 187 183 180 177 174 172 168 165 162 160 157 159 159 159 164 166 165 166 165
189 225 238 233 245 251 248 272 255 242 223 211 209 241 259 302 303 205 178 172 172 170 172 178 180 182 185 184 184 191 188 184 180 178 174 170 167 166 164 162 157 156 160 167 172 176 176 173 171
205 238 235 237 241 245 246 240 245 250 237 249 263 256 263 248 302 179 178 177 176 174 174 181 182 183 186 187 191 192 188 183 180 178 173 171 169 167 167 166 167 168 172 173 174 182 186 185 179
236 218 245 253 254 252 242 219 235 250 251 243 253 267 261 243 234 191 182 179 179 177 176 180 182 186 188 191 193 192 189 185 181 177 176 173 170 169 171 175 177 179 178 179 182 187 194 193 198
231 253 252 247 251 253 263 233 257 248 254 257 238 246 246 241 208 189 181 180 180 181 181 177 180 185 189 191 194 193 191 187 182 179 177 174 171 173 177 180 180 181 183 185 186 194 198 207 223
234 241 243 246 248 244 242 279 248 250 259 232 224 243 243 244 198 186 180 182 184 185 186 182 182 184 182 188 190 192 192 187 183 181 179 175 175 175 176 174 180 184 185 182 188 198 207 226 262
218 231 247 261 262 260 249 246 246 240 231 237 235 237 228 213 200 195 192 190 190 188 189 186 184 183 181 183 188 188 188 185 186 184 181 179 181 169 164 182 183 186 182 181 188 198 208 31 262
231 246 254 252 271 274 265 260 243 256 245 241 230 223 217 220 212 210 206 202 197 192 190 189 187 183 184 184 184 181 183 184 187 188 187 178 179 183 178 184 186 189 187 160 184 180 124 215 182
246 255 265 269 272 270 254 267 259 252 251 250 235 241 232 226 222 219 213 206 201 197 195 191 192 186 184 186 182 184 183 185 185 188 190 189 182 186 179 181 179 176 180 188 173 194 183 174 175
248 255 261 268 264 268 264 264 265 260 251 252 253 242 235 236 232 224 218 213 205 203 197 195 197 189 186 185 183 185 187 188 188 189 192 191 187 184 181 183 178 178 176 171 171 174 185 224 259
271 280 272 267 262 263 264 263 266 255 250 252 251 244 245 237 233 234 230 222 214 209 205 206 206 194 188 187 185 186 186 190 188 190 194 192 187 190 186 184 180 172 165 176 171 179 200 236 263
268 274 267 258 252 253 258 261 249 252 253 247 244 243 247 244 241 238 236 229 219 211 212 210 206 198 191 190 191 192 193 190 191 191 195 191 184 195 183 182 178 179 181 184 192 219 244 259 285
260 261 271 268 243 245 233 256 251 253 242 242 240 243 245 243 239 234 230 226 221 212 210 211 200 195 194 194 196 194 196 191 192 191 195 195 195 192 185 186 175 188 184 173 186 212 241 262 274
240 262 276 285 271 264 251 252 258 259 257 246 237 239 238 240 234 222 219 222 217 209 204 213 196 195 195 197 197 195 197 191 192 193 194 196 194 193 185 178 179 189 189 181 197 240 243 268 282
292 290 280 275 265 268 253 261 241 255 236 263 234 238 235 236 233 225 219 214 212 205 205 210 193 193 193 194 195 196 199 194 192 189 188 198 194 189 180 180 184 187 186 192 219 263 277 273 284
273 276 274 275 283 270 263 261 257 255 261 256 254 244 242 235 232 224 219 209 203 197 201 204 190 193 200 192 193 195 195 192 188 186 188 192 195 188 187 182 191 187 177 201 240 274 279 303 308
264 260 263 273 272 269 274 262 255 243 245 250 253 251 244 238 227 218 213 202 196 197 199 197 192 197 207 192 192 194 191 194 189 184 195 196 196 193 189 184 181 180 203 231 285 288 268 274 322
250 250 263 272 282 270 264 270 256 249 246 251 252 249 247 241 232 213 209 198 197 196 196 193 197 203 206 189 187 185 184 187 185 189 190 196 196 193 190 193 187 192 206 307 297 290 253 266 323
260 245 262 268 271 269 253 260 256 239 241 243 240 242 240 234 228 225 209 200 197 196 195 193 195 199 198 193 188 194 189 189 191 187 187 189 191 190 195 200 199 185 299 320 316 295 276 166 234
275 274 265 277 274 272 264 256 261 254 234 238 234 231 235 230 224 216 211 202 200 197 196 191 190 194 193 195 191 198 187 194 187 183 188 177 184 194 201 192 170 171 109 307 278 267 234 186 216
268 261 257 265 265 263 263 258 256 250 243 237 228 236 236 227 224 217 210 200 199 197 196 189 188 190 190 193 196 201 187 188 184 192 190 188 186 188 176 170 189 208 254 249 242 221 206 237 278
233 248 263 254 237 255 264 248 251 260 239 236 222 228 231 222 216 216 207 197 193 192 192 190 187 186 188 194 196 193 185 194 198 195 194 195 192 176 170 168 141 124 269 235 202 203 247 278 293
275 262 253 279 278 282 299 250 245 236 265 260 238 229 213 200 207 209 204 197 193 189 187 187 186 185 187 189 189 181 183 195 192 197 197 200 199 176 165 163 155 149 216 212 209 234 237 272 289
261 244 255 268 266 272 267 277 265 252 238 234 239 225 198 185 191 194 195 195 193 188 185 183 185 185 185 184 177 172 189 199 192 197 203 185 176 166 169 160 190 188 178 210 219 218 225 258 281
242 267 263 225 268 262 252 266 283 310 230 226 222 223 215 207 203 197 196 189 191 187 183 179 178 182 179 177 177 180 194 195 192 199 186 170 165 160 160 165 162 189 196 206 200 202 226 263 306
214 221 236 274 256 271 291 303 304 53 327 241 218 216 216 207 202 198 193 189 185 186 183 176 173 180 168 175 180 190 187 181 188 179 163 161 162 168 176 167 174 184 193 191 187 202 242 292 327
260 270 241 245 259 247 291 291 309 269 322 204 299 219 218 220 209 201 195 187 184 180 178 175 178 176 176 182 181 186 178 172 171 163 162 165 172 172 174 178 174 168 182 183 186 179 185 331 352
Wind_Speed_850mb
19 11 6 7 13 13 26 26 25 16 16 13 4 9 17 20 16 8 11 23 41 52 62 57 53 50 47 43 40 37 32 31 33 31 29 30 32 35 39 39 37 31 26 28 26 22 20 15 11
15 12 9 10 16 27 28 32 31 27 16 5 11 20 18 15 9 2 12 28 48 53 63 60 56 53 50 45 41 38 30 32 33 32 32 32 33 37 40 37 33 28 25 25 22 19 15 13 11
19 19 17 10 22 33 36 29 16 22 22 14 8 10 13 5 4 5 9 33 55 56 66 63 60 56 53 48 42 36 29 32 34 35 34 33 34 37 38 33 28 24 21 20 18 14 12 12 12
16 14 16 22 42 42 41 28 5 14 27 26 18 17 14 3 1 3 4 43 56 59 63 65 63 59 55 50 44 36 30 31 33 35 35 35 35 35 34 30 25 21 20 20 16 14 13 13 12
22 17 24 35 51 53 39 30 10 17 5 12 10 15 12 5 10 8 22 45 53 58 58 68 65 60 56 51 46 38 34 33 33 34 35 34 35 36 33 29 24 23 21 18 15 13 13 12 12
26 22 28 43 53 52 41 39 30 31 25 19 19 26 27 8 2 11 27 43 51 58 58 70 66 61 57 54 48 40 36 35 34 35 35 35 35 35 32 28 25 21 17 15 13 12 11 10 8
39 25 42 52 50 53 39 36 34 37 45 44 31 27 12 9 12 13 30 42 51 54 55 68 68 64 58 54 49 42 37 36 36 37 37 37 35 33 31 28 24 20 17 14 12 11 11 8 6
40 30 52 50 49 58 40 27 36 38 46 40 32 20 30 30 12 19 30 43 53 55 54 59 65 68 63 58 51 45 40 37 35 37 38 37 35 33 31 28 24 21 17 14 11 10 8 7 6
30 29 41 53 51 40 15 26 36 34 35 25 34 43 17 12 19 22 35 47 54 55 56 59 61 64 59 58 57 49 43 38 35 36 37 38 36 35 32 30 25 21 17 13 11 9 6 4 4
33 33 58 42 39 39 43 41 43 27 29 33 34 37 29 21 24 27 38 52 60 62 60 61 60 60 57 51 61 57 51 45 42 40 42 39 33 31 27 29 26 21 16 12 8 5 3 1 4
43 53 44 43 38 39 47 52 42 41 42 44 38 38 33 28 26 30 39 49 61 60 59 61 61 60 59 53 59 48 47 45 43 43 43 35 34 36 31 28 26 21 17 7 6 4 2 8 5
48 53 51 57 60 44 42 49 50 56 59 42 38 37 27 34 32 30 38 46 54 60 61 61 62 61 61 53 54 48 45 43 39 40 45 38 35 36 30 24 22 21 15 17 12 8 12 7 4
44 45 56 47 39 49 61 59 52 66 55 55 61 51 40 39 36 34 31 44 52 61 63 69 67 68 62 56 53 49 46 43 39 40 43 36 33 33 31 27 23 20 18 17 14 13 8 6 4
33 36 35 40 49 53 55 59 54 87 62 62 56 56 60 56 48 43 39 41 55 63 69 77 73 73 60 56 53 49 45 42 39 37 39 39 32 33 32 30 24 20 19 16 13 11 8 5 7
35 37 40 48 55 50 52 53 71 76 53 54 54 72 74 69 63 61 55 50 52 62 72 79 82 75 61 56 55 49 44 41 39 37 39 40 36 39 31 27 27 22 19 19 14 10 8 4 5
36 37 37 36 47 48 50 73 62 67 73 70 64 68 67 66 68 68 62 57 56 59 74 74 75 66 61 56 57 47 42 40 38 36 37 44 42 40 36 29 25 21 18 14 10 7 5 5 6
31 33 41 38 29 29 42 66 49 70 66 49 55 67 72 70 59 59 61 58 59 61 72 79 73 67 64 57 52 48 46 43 39 37 35 46 43 40 34 27 24 26 16 12 10 8 5 9 8
35 35 38 37 30 44 45 55 42 52 17 33 53 48 52 65 70 62 62 56 57 63 76 76 72 67 65 56 49 45 42 40 37 35 35 44 44 42 36 31 25 19 16 10 7 7 11 14 16
45 46 49 42 37 42 50 48 42 36 45 46 45 48 47 49 56 60 58 58 58 65 78 73 77 73 77 62 58 50 47 42 38 37 38 43 46 44 40 27 27 17 13 12 8 12 15 8 11
49 48 53 42 42 38 52 59 51 43 46 51 48 46 49 47 42 54 51 58 64 79 85 74 75 78 84 62 55 47 43 41 40 38 44 44 44 46 42 28 23 19 16 8 9 11 5 4 10
44 44 43 45 42 39 43 59 58 53 55 58 64 63 58 54 42 45 48 59 64 77 85 78 80 82 80 63 53 44 42 42 42 41 41 47 41 44 41 38 27 21 8 10 14 11 5 4 5
37 30 40 39 38 32 38 43 54 53 58 58 62 67 70 56 49 42 44 59 65 70 74 74 74 76 71 73 59 62 58 51 46 42 34 39 41 41 43 37 27 11 5 9 18 16 9 2 3
33 32 32 35 42 44 53 36 42 48 55 56 45 64 73 60 53 50 49 58 64 66 69 69 68 71 70 75 64 60 51 44 41 41 46 44 44 41 35 27 20 13 11 26 21 12 5 5 2
28 25 33 36 33 34 49 46 44 42 47 49 41 55 59 64 57 50 46 53 58 60 64 64 70 71 68 70 74 66 57 48 48 57 53 52 47 37 34 29 12 11 8 26 14 8 9 7 7
18 20 15 22 23 33 36 29 36 38 41 43 43 38 51 54 55 52 48 56 58 63 66 68 69 69 68 68 70 59 52 60 53 55 59 55 44 43 35 22 20 28 22 17 14 12 9 8 7
21 16 16 24 25 27 23 31 38 42 45 45 45 62 46 46 49 47 46 54 59 62 64 68 67 66 66 63 61 55 54 51 53 50 51 46 48 41 33 26 26 32 21 15 12 8 5 6 8
25 32 34 39 48 33 33 40 26 37 42 43 41 42 44 41 35 36 33 43 54 58 61 64 66 62 63 64 61 60 62 58 51 48 44 41 47 42 34 30 29 21 18 20 14 10 8 7 8
35 18 14 9 11 19 21 30 21 13 31 43 44 48 54 42 37 35 29 29 45 51 53 54 55 61 66 66 67 71 70 53 49 45 40 55 54 47 42 37 27 25 26 24 19 12 10 9 9
14 21 11 18 19 19 23 10 15 8 23 18 43 59 59 54 47 39 31 24 33 46 50 52 53 62 65 73 79 72 62 52 47 43 59 67 60 52 45 47 40 32 31 26 18 12 6 7 8
34 36 29 14 25 18 18 17 23 20 13 12 9 33 47 49 51 46 38 27 29 41 49 52 58 61 75 80 75 65 55 58 55 68 68 59 54 55 51 39 36 33 29 22 14 7 3 3 5
Wind_Direction_850mb
245 236 198 233 243 235 255 244 246 231 232 218 211 241 327 306 292 7 138 175 164 166 171 174 176 175 176 174 167 163 167 171 172 170 162 156 153 157 157 153 151 148 146 149 153 157 164 169 167
209 191 190 244 250 242 249 237 234 246 227 185 239 242 255 294 317 159 128 172 165 168 172 176 178 178 178 176 171 167 175 175 175 174 168 164 162 163 161 157 157 157 155 158 159 165 172 173 166
185 182 232 228 239 243 253 256 240 250 230 210 261 269 294 323 58 189 208 169 165 170 174 178 179 180 181 179 174 174 183 179 178 176 173 170 168 165 162 159 158 159 158 160 160 160 161 161 160
173 192 238 240 242 241 256 273 325 250 243 246 259 261 244 235 3 196 183 164 170 172 174 179 179 181 182 182 178 185 187 183 180 177 174 172 168 165 162 160 157 159 159 159 164 166 165 166 165
189 225 238 233 245 251 248 272 255 242 223 211 209 241 259 302 303 205 178 172 172 170 172 178 180 182 185 184 184 191 188 184 180 178 174 170 167 166 164 162 157 156 160 167 172 176 176 173 171
205 238 235 237 241 245 246 240 245 250 237 249 263 256 263 248 302 179 178 177 176 174 174 181 182 183 186 187 191 192 188 183 180 178 173 171 169 167 167 166 167 168 172 173 174 182 186 185 179
236 218 245 253 254 252 242 219 235 250 251 243 253 267 261 243 234 191 182 179 179 177 176 180 182 186 188 191 193 192 189 185 181 177 176 173 170 169 171 175 177 179 178 179 182 187 194 193 198
231 253 252 247 251 253 263 233 257 248 254 257 238 246 246 241 208 189 181 180 180 181 181 177 180 185 189 191 194 193 191 187 182 179 177 174 171 173 177 180 180 181 183 185 186 194 198 207 223
234 241 243 246 248 244 242 279 248 250 259 232 224 243 243 244 198 186 180 182 184 185 186 182 182 184 182 188 190 192 192 187 183 181 179 175 175 175 176 174 180 184 185 182 188 198 207 226 262
218 231 247 261 262 260 249 246 246 240 231 237 235 237 228 213 200 195 192 190 190 188 189 186 184 183 181 183 188 188 188 185 186 184 181 179 181 169 164 182 183 186 182 181 188 198 208 31 262
231 246 254 252 271 274 265 260 243 256 245 241 230 223 217 220 212 210 206 202 197 192 190 189 187 183 184 184 184 181 183 184 187 188 187 178 179 183 178 184 186 189 187 160 184 180 124 215 182
246 255 265 269 272 270 254 267 259 252 251 250 235 241 232 226 222 219 213 206 201 197 195 191 192 186 184 186 182 184 183 185 185 188 190 189 182 186 179 181 179 176 180 188 173 194 183 174 175
248 255 261 268 264 268 264 264 265 260 251 252 253 242 235 236 232 224 218 213 205 203 197 195 197 189 186 185 183 185 187 188 188 189 192 191 187 184 181 183 178 178 176 171 171 174 185 224 259
271 280 272 267 262 263 264 263 266 255 250 252 251 244 245 237 233 234 230 222 214 209 205 206 206 194 188 187 185 186 186 190 188 190 194 192 187 190 186 184 180 172 165 176 171 179 200 236 263
268 274 267 258 252 253 258 261 249 252 253 247 244 243 247 244 241 238 236 229 219 211 212 210 206 198 191 190 191 192 193 190 191 191 195 191 184 195 183 182 178 179 181 184 192 219 244 259 285
260 261 271 268 243 245 233 256 251 253 242 242 240 243 245 243 239 234 230 226 221 212 210 211 200 195 194 194 196 194 196 191 192 191 195 195 195 192 185 186 175 188 184 173 186 212 241 262 274
240 262 276 285 271 264 251 252 258 259 257 246 237 239 238 240 234 222 219 222 217 209 204 213 196 195 195 197 197 195 197 191 192 193 194 196 194 193 185 178 179 189 189 181 197 240 243 268 282
292 290 280 275 265 268 253 261 241 255 236 263 234 238 235 236 233 225 219 214 212 205 205 210 193 193 193 194 195 196 199 194 192 189 188 198 194 189 180 180 184 187 186 192 219 263 277 273 284
273 276 274 275 283 270 263 261 257 255 261 256 254 244 242 235 232 224 219 209 203 197 201 204 190 193 200 192 193 195 195 192 188 186 188 192 195 188 187 182 191 187 177 201 240 274 279 303 308
264 260 263 273 272 269 274 262 255 243 245 250 253 251 244 238 227 218 213 202 196 197 199 197 192 197 207 192 192 194 191 194 189 184 195 196 196 193 189 184 181 180 203 231 285 288 268 274 322
250 250 263 272 282 270 264 270 256 249 246 251 252 249 247 241 232 213 209 198 197 196 196 193 197 203 206 189 187 185 184 187 185 189 190 196 196 193 190 193 187 192 206 307 297 290 253 266 323
260 245 262 268 271 269 253 260 256 239 241 243 240 242 240 234 228 225 209 200 197 196 195 193 195 199 198 193 188 194 189 189 191 187 187 189 191 190 195 200 199 185 299 320 316 295 276 166 234
275 274 265 277 274 272 264 256 261 254 234 238 234 231 235 230 224 216 211 202 200 197 196 191 190 194 193 195 191 198 187 194 187 183 188 177 184 194 201 192 170 171 109 307 278 267 234 186 216
268 261 257 265 265 263 263 258 256 250 243 237 228 236 236 227 224 217 210 200 199 197 196 189 188 190 190 193 196 201 187 188 184 192 190 188 186 188 176 170 189 208 254 249 242 221 206 237 278
233 248 263 254 237 255 264 248 251 260 239 236 222 228 231 222 216 216 207 197 193 192 192 190 187 186 188 194 196 193 185 194 198 195 194 195 192 176 170 168 141 124 269 235 202 203 247 278 293
275 262 253 279 278 282 299 250 245 236 265 260 238 229 213 200 207 209 204 197 193 189 187 187 186 185 187 189 189 181 183 195 192 197 197 200 199 176 165 163 155 149 216 212 209 234 237 272 289
261 244 255 268 266 272 267 277 265 252 238 234 239 225 198 185 191 194 195 195 193 188 185 183 185 185 185 184 177 172 189 199 192 197 203 185 176 166 169 160 190 188 178 210 219 218 225 258 281
242 267 263 225 268 262 252 266 283 310 230 226 222 223 215 207 203 197 196 189 191 187 183 179 178 182 179 177 177 180 194 195 192 199 186 170 165 160 160 165 162 189 196 206 200 202 226 263 306
214 221 236 274 256 271 291 303 304 53 327 241 218 216 216 207 202 198 193 189 185 186 183 176 173 180 168 175 180 190 187 181 188 179 163 161 162 168 176 167 174 184 193 191 187 202 242 292 327
260 270 241 245 259 247 291 291 309 269 322 204 299 219 218 220 209 201 195 187 184 180 178 175 178 176 176 182 181 186 178 172 171 163 162 165 172 172 174 178 174 168 182 183 186 179 185 331 352